Simultaneous Nadir Overpasses (SNOs) Predictions

Prediction of SNOs between GOES-17 and METOP-C Satellite Orbit:

Table of predicted SNOs for the next 14.0 days since TLE Epoch: 7/29/2023
Index Date Time (GOES-17) GOES-17 Lat,Lon METOP-C Lat,Lon Distance(km) Time Diff (sec)
1 07/30/2023 04:47:59 -0.00,-104.70 -0.97,-109.08 499.63 80
2 07/31/2023 04:24:39 -0.00,-104.69 0.15,-104.09 69.11 80
3 08/01/2023 16:43:29 -0.00,-104.71 0.90,-108.64 448.40 80
4 08/02/2023 16:25:29 -0.00,-104.71 -0.22,-103.65 120.95 80
5 08/04/2023 04:44:26 0.00,-104.68 -0.81,-108.23 404.82 80
6 08/05/2023 04:21:06 0.00,-104.68 0.31,-103.24 164.43 80
7 08/06/2023 16:39:57 -0.00,-104.70 0.67,-107.80 352.74 80
8 08/07/2023 16:21:56 -0.00,-104.71 -0.45,-102.81 217.00 80
9 08/09/2023 04:40:54 0.00,-104.69 -0.57,-107.40 308.13 80
10 08/10/2023 04:17:32 0.01,-104.68 0.50,-102.39 261.11 80
11 08/11/2023 16:36:24 -0.01,-104.70 0.48,-106.96 256.71 80
